1371081626334,0.796140
1371081686334,0.791605
1371081746334,0.791995
1371081806334,0.793197
1371081866334,0.791229
1371081926334,0.787629
1371081986334,0.785807
1371082046334,0.791209
1371082106334,0.788843
1371082166334,0.792459
1371082226334,0.797374
1371082286334,0.793233
1371082346334,0.787026
1371082406334,0.788427
1371082466334,0.786205
1371082526334,0.789229
1371082586334,0.783209
1371082646334,0.784055
1371082706334,0.791089
1371082766334,0.793058
1371082826334,0.793282
1371082886334,0.788510
1371082946334,0.787468
1371083006334,0.787104
1371083066334,0.794332
1371083126334,0.788276
1371083186334,0.792018
1371083246334,0.794492
1371083306334,0.785015
1371083366334,0.785222
1371083426334,0.783729
1371083486334,0.787575
1371083546334,0.788783
1371083606334,0.795612
1371083666334,0.788556
1371083726334,0.786755
1371083786334,0.785635
1371083846334,0.786859
1371083906334,0.785722
1371083966334,0.789641
1371084026334,0.784045
1371084086334,0.784379
1371084146334,0.789033
1371084206334,0.794556
1371084266334,0.791528
1371084326334,0.789419
1371084386334,0.792420
1371084446334,0.792831
1371084506334,0.796591
1371084566334,0.801225
1371084626334,0.801194
1371084686334,0.796374
1371084746334,0.799622
1371084806334,0.792998
1371084866334,0.795123
1371084926334,0.796521
1371084986334,0.798328
1371085046334,0.796739
1371085106334,0.792927
1371085166334,0.791077
1371085226345,0.795135
1371085286345,0.795018
1371085346345,0.794112
1371085406345,0.794859
1371085466345,0.791180
1371085526345,0.799205
1371085586345,0.792187
1371085646345,0.788996
1371085706345,0.793412
1371085766345,0.786918
1371085826345,0.785440
1371085886345,0.782354
1371085946345,0.781207
1371086006345,0.792749
1371086066345,0.795000
1371086126345,0.781948
1371086186345,0.789633
1371086246345,0.781633
1371086306345,0.788973
1371086366345,0.788885
1371086426345,0.793284
1371086486345,0.791497
1371086546345,0.782834
1371086606345,0.784403
1371086666345,0.785730
1371086726345,0.789084
1371086786345,0.784558
1371086846345,0.793400
1371086906345,0.787296
1371086966345,0.787639
1371087026345,0.792523
1371087086345,0.788975
1371087146345,0.779883
1371087206345,0.788810
1371087266345,0.790330
1371087326345,0.785182
1371087386345,0.787514
1371087446345,0.784446
1371087506345,0.779897
1371087566345,0.783493
1371087626345,0.786050
1371087686345,0.788148
1371087746345,0.785004
1371087806345,0.783130
1371087866345,0.792656
1371087926345,0.782073
1371087986345,0.783584
1371088046345,0.785821
1371088106345,0.794201
1371088166345,0.790758
1371088226345,0.792850
1371088286345,0.783135
1371088346345,0.789530
1371088406345,0.789409
1371088466345,0.787212
1371088526345,0.794950
1371088586345,0.789565
1371088646345,0.787046
1371088706345,0.790293
1371088766345,0.793104
1371088826355,0.790508
1371088886355,0.787237
1371088946355,0.785541
1371089006355,0.784317
1371089066355,0.793057
1371089126355,0.792104
1371089186355,0.788144
1371089246355,0.787559
1371089306355,0.788121
1371089366355,0.794978
1371089426355,0.796330
1371089486355,0.797632
1371089546355,0.796939
1371089606355,0.789213
1371089666355,0.794913
1371089726355,0.784654
1371089786355,0.794591
1371089846355,0.786950
1371089906355,0.790976
1371089966355,0.793267
1371090026355,0.796291
1371090086355,0.788305
1371090146355,0.796100
1371090206355,0.793409
1371090266355,0.791811
1371090326355,0.789029
1371090386355,0.788386
1371090446355,0.791109
1371090506355,0.785189
1371090566355,0.779881
1371090626355,0.784916
1371090686355,0.785540
1371090746355,0.788529
1371090806355,0.795954
1371090866355,0.786440
1371090926355,0.790207
1371090986355,0.792123
1371091046355,0.785195
1371091106355,0.785380
1371091166355,0.788404
1371091226355,0.790316
1371091286355,0.788874
1371091346355,0.803668
1371091406355,0.786502
1371091466355,0.790140
1371091526355,0.786410
1371091586355,0.776211
1371091646355,0.783339
1371091706355,0.787200
1371091766355,0.788409
1371091826355,0.791033
1371091886355,0.784643
1371091946355,0.788450
1371092006355,0.796033
1371092066355,0.787964
1371092126355,0.783565
1371092186355,0.790002
1371092246355,0.788529
1371092306355,0.783624
1371092366355,0.791738
1371092426365,0.793441
1371092486365,0.783750
1371092546365,0.789170
1371092606365,0.784250
1371092666365,0.781541
1371092726365,0.785302
1371092786365,0.787420
1371092846365,0.789419
1371092906365,0.794638
1371092966365,0.785815
1371093026365,0.781443
1371093086365,0.787652
1371093146365,0.793453
1371093206365,0.792905
1371093266365,0.788819
1371093326365,0.793434
1371093386365,0.785842
1371093446365,0.786586
1371093506365,0.787564
1371093566365,0.796145
1371093626365,0.792505
1371093686365,0.788918
1371093746365,0.796112
1371093806365,0.791223
1371093866365,0.794901
1371093926365,0.791054
1371093986365,0.785500
1371094046365,0.799514
1371094106365,0.793680
1371094166365,0.793878
1371094226365,0.788411
1371094286365,0.791208
1371094346365,0.791826
1371094406365,0.794930
1371094466365,0.792414
1371094526365,0.790218
1371094586365,0.794244
1371094646365,0.785055
1371094706365,0.795977
1371094766365,0.790720
1371094826365,0.796304
1371094886365,0.791957
1371094946365,0.794305
1371095006365,0.783947
1371095066365,0.789294
1371095126365,0.793664
1371095186365,0.796142
1371095246365,0.791521
1371095306365,0.783471
1371095366365,0.785434
1371095426365,0.793689
1371095486365,0.786600
1371095546365,0.785999
1371095606365,0.797057
1371095666365,0.792695
1371095726365,0.792116
1371095786365,0.788499
1371095846365,0.787168
1371095906365,0.792287
1371095966365,0.795088
1371096026374,0.784630
1371096086374,0.792169
1371096146374,0.789331
1371096206374,0.795135
1371096266374,0.800615
1371096326374,0.786421
1371096386374,0.789501
1371096446374,0.784288
1371096506374,0.790523
1371096566374,0.789473
1371096626374,0.789256
1371096686374,0.779481
1371096746374,0.796296
1371096806374,0.784589
1371096866374,0.794348
1371096926374,0.793054
1371096986374,0.788229
1371097046374,0.785625
1371097106374,0.788093
1371097166374,0.793104
1371097226374,0.784114
1371097286374,0.786790
1371097346374,0.783103
1371097406374,0.790620
1371097466374,0.788725
1371097526374,0.795848
1371097586374,0.798405
1371097646374,0.790665
1371097706374,0.790790
1371097766374,0.788721
1371097826374,0.797324
1371097886374,0.796819
1371097946374,0.796778
1371098006374,0.800512
1371098066374,0.791664
1371098126374,0.794116
1371098186374,0.803691
1371098246374,0.807233
1371098306374,0.802696
1371098366374,0.801640
1371098426374,0.799552
1371098486374,0.799274
1371098546374,0.797991
1371098606374,0.797726
1371098666374,0.802653
1371098726374,0.796572
1371098786374,0.798795
1371098846374,0.796767
1371098906374,0.797794
1371098966374,0.794056
1371099026374,0.794575
1371099086374,0.797626
1371099146374,0.796460
1371099206374,0.795399
1371099266374,0.795137
1371099326374,0.793723
1371099386374,0.795759
1371099446374,0.796250
1371099506374,0.795490
1371099566374,0.794655
1371099626384,0.793561
1371099686384,0.790875
1371099746384,0.789059
1371099806384,0.788722
1371099866384,0.784749
1371099926384,0.792555
1371099986384,0.788580
1371100046384,0.798005
1371100106384,0.794657
1371100166384,0.790950
1371100226384,0.800641
1371100286384,0.794030
1371100346384,0.789227
1371100406384,0.791243
1371100466384,0.795251
1371100526384,0.790338
1371100586384,0.796948
1371100646384,0.794919
1371100706384,0.791411
1371100766384,0.794244
1371100826384,0.783534
1371100886384,0.789771
1371100946384,0.792552
1371101006384,0.800458
1371101066384,0.800041
1371101126384,0.793914
1371101186384,0.797917
1371101246384,0.793148
1371101306384,0.795506
1371101366384,0.793779
1371101426384,0.794014
1371101486384,0.796589
1371101546384,0.797696
1371101606384,0.791533
1371101666384,0.801458
1371101726384,0.798695
1371101786384,0.798062
1371101846384,0.798991
1371101906384,0.791103
1371101966384,0.798053
1371102026384,0.798665
1371102086384,0.798678
1371102146384,0.801687
1371102206384,0.792381
1371102266384,0.799107
1371102326384,0.800610
1371102386384,0.803601
1371102446384,0.797666
1371102506384,0.791153
1371102566384,0.791314
1371102626384,0.789472
1371102686384,0.796507
1371102746384,0.796078
1371102806384,0.793865
1371102866384,0.792047
1371102926384,0.796229
1371102986384,0.796188
1371103046384,0.788362
1371103106384,0.795474
1371103166384,0.799837
1371103226393,0.797229
1371103286393,0.794561
1371103346393,0.800505
1371103406393,0.794123
1371103466393,0.792396
1371103526393,0.797160
1371103586393,0.793982
1371103646393,0.791220
1371103706393,0.798462
1371103766393,0.795718
1371103826393,0.788539
1371103886393,0.795176
1371103946393,0.795927
1371104006393,0.800616
1371104066393,0.800294
1371104126393,0.795488
1371104186393,0.794889
1371104246393,0.793710
1371104306393,0.786258
1371104366393,0.804806
1371104426393,0.795262
1371104486393,0.800244
1371104546393,0.803600
1371104606393,0.799087
1371104666393,0.798925
1371104726393,0.797438
1371104786393,0.801160
1371104846393,0.799357
1371104906393,0.801262
1371104966393,0.797678
1371105026393,0.805214
1371105086393,0.798129
1371105146393,0.795790
1371105206393,0.796159
1371105266393,0.796829
1371105326393,0.800607
1371105386393,0.795017
1371105446393,0.796138
1371105506393,0.793805
1371105566393,0.798858
1371105626393,0.802131
1371105686393,0.801829
1371105746393,0.804669
1371105806393,0.798016
1371105866393,0.794812
1371105926393,0.803153
1371105986393,0.802195
1371106046393,0.798206
1371106106393,0.788777
1371106166393,0.794853
1371106226393,0.792797
1371106286393,0.798383
1371106346393,0.798939
1371106406393,0.797821
1371106466393,0.798999
1371106526393,0.801548
1371106586393,0.804702
1371106646393,0.800002
1371106706393,0.801257
1371106766393,0.793806
1371106826402,0.797128
1371106886402,0.789763
1371106946402,0.801024
1371107006402,0.802282
1371107066402,0.804703
1371107126402,0.802568
1371107186402,0.803737
1371107246402,0.806187
1371107306402,0.809757
1371107366402,0.808824
1371107426402,0.806018
1371107486402,0.800320
1371108026402,0.797910
1371108086402,0.864166
1371108146402,0.804700
1371108206402,0.800514
1371108266402,0.801315
1371108326402,0.802606
1371108386402,0.805108
1371108446402,0.801874
1371108506402,0.803137
1371108566402,0.802415
1371108626402,0.800970
1371108686402,0.797969
1371108746402,0.805489
1371108806402,0.800885
1371108866402,0.802400
1371108926402,0.801868
1371108986402,0.800713
1371109046402,0.805586
1371109106402,0.804843
1371109166402,0.793988
1371109226402,0.803516
1371109286402,0.805955
1371109346402,0.799610
1371109406402,0.804696
1371109466402,0.795909
1371109526402,0.809446
1371109586402,0.804172
1371109646402,0.799097
1371109706402,0.801077
1371109766402,0.802527
1371109826402,0.803206
1371109886402,0.800134
1371109946402,0.797367
1371110006402,0.804432
1371110066402,0.808394
1371110126402,0.797295
1371110186402,0.806350
1371110246402,0.805983
1371110306402,0.802113
1371110366402,0.805108
1371110426412,0.799668
1371110486412,0.808617
1371110546412,0.806346
1371110606412,0.807032
1371110666412,0.804190
1371110726412,0.807275
1371110786412,0.805307
1371110846412,0.804036
1371110906412,0.802739
1371110966412,0.801078
1371111026412,0.801543
1371111086412,0.798774
1371111146412,0.807505
1371111206412,0.803298
1371111266412,0.799517
1371111326412,0.797526
1371111386412,0.800811
1371111446412,0.812598
1371111506412,0.801757
1371111566412,0.807531
1371111626412,0.801091
1371111686412,0.808247
1371111746412,0.808297
1371111806412,0.802730
1371111866412,0.806381
1371111926412,0.809627
1371111986412,0.812566
1371112046412,0.812844
1371112106412,0.813217
1371112166412,0.804307
1371112226412,0.806512
1371112286412,0.809758
1371112346412,0.807036
1371112406412,0.808461
1371112466412,0.809195
1371112526412,0.804787
1371112586412,0.806538
1371112646412,0.804176
1371112706412,0.800134
1371112766412,0.802833
1371112826412,0.804378
1371112886412,0.800216
1371112946412,0.804033
1371113006412,0.802142
1371113066412,0.806518
1371113126412,0.798487
1371113186412,0.802142
1371113246412,0.809272
1371113306412,0.806843
1371113366412,0.807556
1371113426412,0.801817
1371113486412,0.806864
1371113546412,0.805339
1371113606412,0.796952
1371113666412,0.799862
1371113726412,0.803205
1371113786412,0.802067
1371113846412,0.799518
1371113906412,0.804556
1371113966412,0.805493
1371114026421,0.803696
1371114086421,0.802735
1371114146421,0.797627
1371114206421,0.796456
1371114266421,0.812563
1371114326421,0.810425
1371114386421,0.806201
1371114446421,0.800324
1371114506421,0.808201
1371114566421,0.809363
1371114626421,0.806687
1371114686421,0.806371
1371114746421,0.803281
1371114806421,0.806080
1371114866421,0.806426
1371114926421,0.805372
1371114986421,0.803813
1371115046421,0.810989
1371115106421,0.811384
1371115166421,0.808872
1371115226421,0.810057
1371115286421,0.819456
1371115346421,0.806289
1371115406421,0.815618
1371115466421,0.817360
1371115526421,0.827637
1371115586421,0.829562
1371115646421,0.829988
1371115706421,0.840835
1371115766421,0.843066
1371115826421,0.833852
1371115886421,0.844191
1371115946421,0.838481
1371116006421,0.842011
1371116066421,0.832130
1371116126421,0.831789
1371116186421,0.832886
1371116246421,0.823338
1371116306421,0.820176
1371116366421,0.818531
1371116426421,0.813153
1371116486421,0.823099
1371116546421,0.816132
1371116606421,0.801366
1371116666421,0.817502
1371116726421,0.817333
1371116786421,0.816205
1371116846421,0.809453
1371116906421,0.807938
1371116966421,0.806056
1371117026421,0.810807
1371117086421,0.816693
1371117146421,0.814068
1371117206421,0.814294
1371117266421,0.803664
1371117326421,0.812238
1371117386421,0.802914
1371117446421,0.808558
1371117506421,0.817211
1371117566421,0.815649
1371117626430,0.820940
1371117686430,0.815516
1371117746430,0.820754
1371117806430,0.824347
1371117866430,0.823495
1371117926430,0.837431
1371117986430,0.841394
1371118046430,0.842854
1371118106430,0.851293
1371118166430,0.849295
1371118226430,0.843851
1371118286430,0.835842
1371118346430,0.845231
1371118406430,0.835250
1371118466430,0.836076
1371118526430,0.836995
1371118586430,0.837572
1371118646430,0.830632
1371118706430,0.823466
1371118766430,0.820904
1371118826430,0.831539
1371118886430,0.822864
1371118946430,0.829187
1371119006430,0.816672
1371119066430,0.826766
1371119126430,0.820420
1371119186430,0.822023
1371119246430,0.819568
1371119306430,0.821979
1371119366430,0.819060
1371119426430,0.817799
1371119486430,0.819259
1371119546430,0.815900
1371119606430,0.819825
1371119666430,0.808159
1371119726430,0.814962
1371119786430,0.813439
1371119846430,0.807300
1371119906430,0.810632
1371119966430,0.811046
1371120026430,0.812112
1371120086430,0.817511
1371120146430,0.806215
1371120206430,0.816012
1371120266430,0.816986
1371120326430,0.813932
1371120386430,0.814277
1371120446430,0.813706
1371120506430,0.813847
1371120566430,0.822169
1371120626430,0.812179
1371120686430,0.812348
1371120746430,0.811979
1371120806430,0.816378
1371120866430,0.817448
1371120926430,0.818600
1371120986430,0.817255
1371121046430,0.808721
1371121106430,0.809194
1371121166430,0.812108
1371121226439,0.811196
1371121286439,0.816180
1371121346439,0.819639
1371121406439,0.811814
1371121466439,0.812192
1371121526439,0.818666
1371121586440,0.810694
1371121646439,0.812196
1371121706439,0.812199
1371121766439,0.810967
1371121826439,0.811922
1371121886440,0.816916
1371121946440,0.814764
1371122006440,0.815708
1371122066440,0.818414
1371122126440,0.817399
1371122186440,0.804455
1371122246440,0.815527
1371122306439,0.810739
1371122366439,0.810858
1371122426439,0.810173
1371122486439,0.813424
1371122546439,0.817407
1371122606439,0.818461
1371122666439,0.817698
1371122726439,0.813899
1371122786439,0.816428
1371122846439,0.825222
1371122906440,0.828734
1371122966439,0.822905
1371123026439,0.823696
1371123086439,0.815572
1371123146439,0.816766
1371123206439,0.815806
1371123266440,0.821468
1371123326440,0.816335
1371123386440,0.821734
1371123446440,0.813781
1371123506440,0.823443
1371123566440,0.816105
1371123626440,0.817243
1371123686439,0.813597
1371123746439,0.811140
1371123806439,0.811669
1371123866439,0.819750
1371123926439,0.808038
1371123986439,0.807381
1371124046439,0.816381
1371124106439,0.815897
1371124166439,0.811185
1371124226439,0.810055
1371124286440,0.813074
1371124346439,0.815200
1371124406439,0.817986
1371124466439,0.813829
1371124526439,0.809189
1371124586440,0.814627
1371124646440,0.820372
1371124706440,0.814535
1371124766440,0.810331
1371124826449,0.822763
1371124886449,0.810986
1371124946449,0.817889
1371125006449,0.806796
1371125066449,0.818408
1371125126449,0.813043
1371125186449,0.809510
1371125246449,0.816050
1371125306449,0.821912
1371125366449,0.824986
1371125426449,0.815372
1371125486449,0.822736
1371125546449,0.817451
1371125606449,0.809797
1371125666449,0.813685
1371125726449,0.806054
1371125786449,0.810068
1371125846449,0.811425
1371125906449,0.813388
1371125966449,0.816026
1371126026449,0.812543
1371126086449,0.820116
1371126146449,0.817305
1371126206449,0.816244
1371126266449,0.819572
1371126326449,0.817574
1371126386449,0.813092
1371126446449,0.813097
1371126506449,0.813543
1371126566449,0.813625
1371126626449,0.815571
1371126686449,0.814995
1371126746449,0.817585
1371126806449,0.822302
1371126866449,0.815807
1371126926449,0.811496
1371126986449,0.817265
1371127046449,0.810795
1371127106449,0.815882
1371127166449,0.821297
1371127226449,0.812110
1371127286449,0.809374
1371127346449,0.814531
1371127406449,0.815320
1371127466449,0.816824
1371127526449,0.814039
1371127586449,0.806766
1371127646449,0.815170
1371127706449,0.818573
1371127766449,0.814145
1371127826449,0.814884
1371127886449,0.813811
1371127946449,0.820189
1371128006449,0.816983
1371128066449,0.814448
1371128126449,0.817498
1371128186449,0.815780
1371128246449,0.820657
1371128306449,0.815370
1371128366449,0.809246
1371128426458,0.828043
1371128486458,0.812494
1371128546458,0.819698
1371128606458,0.825642
1371128666458,0.822311
1371128726458,0.827662
1371128786458,0.821077
1371128846458,0.825175
1371128906458,0.819729
1371128966458,0.819165
1371129026458,0.823930
1371129086458,0.828665
1371129146458,0.824862
1371129206458,0.817681
1371129266458,0.829988
1371129326458,0.824004
1371129386458,0.825370
1371129446458,0.827435
1371129506458,0.825482
1371129566458,0.816801
1371129626458,0.818433
1371129686458,0.828960
1371129746458,0.821442
1371129806458,0.824115
1371129866458,0.824375
1371129926458,0.818450
1371129986458,0.824819
1371130046458,0.825006
1371130106458,0.815905
1371130166458,0.818830
1371130226458,0.812976
1371130286458,0.822579
1371130346458,0.825752
1371130406458,0.822808
1371130466458,0.816528
1371130526458,0.824596
1371130586458,0.824763
1371130646458,0.827656
1371130706458,0.823808
1371130766458,0.821547
1371130826458,0.816853
1371130886458,0.828604
1371130946458,0.821884
1371131006458,0.822371
1371131066458,0.820872
1371131126458,0.817193
1371131186458,0.823666
1371131246458,0.825900
1371131306458,0.824862
1371131366458,0.816802
1371131426458,0.823801
1371131486458,0.818976
1371131546458,0.826291
1371131606458,0.825651
1371131666458,0.830845
1371131726458,0.822295
1371131786458,0.819626
1371131846458,0.816577
1371131906458,0.817275
1371131966458,0.820451
1371132026467,0.824583
1371132086467,0.819641
1371132146467,0.823867
1371132206467,0.815695
1371132266467,0.821071
1371132326467,0.821970
1371132386467,0.825289
1371132446467,0.817775
1371132506467,0.826229
1371132566467,0.823493
1371132626467,0.816741
1371132686467,0.826488
1371132746467,0.822489
1371132806467,0.813783
1371132866467,0.816233
1371132926467,0.821444
1371132986467,0.825369
1371133046467,0.822401
1371133106467,0.824847
1371133166467,0.821604
1371133226467,0.826910
1371133286467,0.823303
1371133346467,0.820176
1371133406467,0.815171
1371133466467,0.826155
1371133526467,0.812494
1371133586467,0.824942
1371133646467,0.821236
1371133706467,0.818312
1371133766467,0.815951
1371133826467,0.831307
1371133886467,0.831925
1371133946467,0.828041
1371134006467,0.822682
1371134066467,0.832632
1371134126467,0.823669
1371134186467,0.828742
1371134246467,0.829366
1371134306467,0.826571
1371134366467,0.835098
1371134426467,0.844246
1371134486467,0.840546
1371134546467,0.841390
1371134606467,0.844086
1371134666467,0.847084
1371134726467,0.844107
1371134786467,0.846644
1371134846467,0.851867
1371134906467,0.842870
1371134966467,0.848344
1371135026467,0.854167
1371135086467,0.850411
1371135146467,0.855505
1371135206467,0.867554
1371135266467,0.862374
1371135326467,0.850981
1371135386467,0.858645
1371135446467,0.846496
1371135506467,0.841866
1371135566467,0.844560
1371135626476,0.840362
1371135686476,0.844172
1371135746476,0.834388
1371135806476,0.835388
1371135866476,0.830363
1371135926476,0.829044
1371135986476,0.831009
1371136046476,0.827430
1371136106476,0.830554
1371136166476,0.824251
1371136226476,0.830194
1371136286476,0.831422
1371136346476,0.830917
1371136406476,0.824848
1371136466476,0.832636
1371136526476,0.832608
1371136586476,0.826813
1371136646476,0.827545
1371136706476,0.828660
1371136766476,0.828532
1371136826476,0.836799
1371136886476,0.827143
1371136946476,0.831481
1371137006476,0.830832
1371137066476,0.830552
1371137126476,0.831171
1371137186476,0.839401
1371137246476,0.826012
1371137306476,0.831769
1371137366476,0.834522
1371137426476,0.832318
1371137486476,0.828523
1371137546476,0.834955
1371137606476,0.835449
1371137666476,0.826124
1371137726476,0.828377
1371137786476,0.832966
1371137846476,0.842652
1371137906476,0.827633
1371137966476,0.838322
1371138026476,0.823038
1371138086476,0.838880
1371138146476,0.828701
1371138206476,0.824042
1371138266476,0.834177
1371138326476,0.833907
1371138386476,0.827222
1371138446476,0.831592
1371138506476,0.835179
1371138566476,0.830971
1371138626476,0.831774
1371138686476,0.833133
1371138746476,0.829928
1371138806476,0.840336
1371138866476,0.829824
1371138926476,0.829413
1371138986476,0.826131
1371139046476,0.830751
1371139106476,0.829961
1371139166476,0.831172
1371139226486,0.820769
1371139286486,0.839392
1371139346486,0.837819
1371139406486,0.831079
1371139466486,0.827690
1371139526486,0.827540
1371139586486,0.831288
1371139646486,0.831985
1371139706486,0.826196
1371139766486,0.841332
1371139826486,0.833415
1371139886486,0.839520
1371139946486,0.838884
1371140006486,0.839285
1371140066486,0.833605
1371140126486,0.845363
1371140186486,0.829045
1371140246486,0.830336
1371140306486,0.825155
1371140366486,0.834850
1371140426486,0.831594
1371140486486,0.832482
1371140546486,0.832835
1371140606486,0.834636
1371140666486,0.830387
1371140726486,0.835186
1371140786486,0.826137
1371140846486,0.837913
1371140906486,0.833182
1371140966486,0.828302
1371141026486,0.829740
1371141086486,0.826969
1371141146486,0.822066
1371141206486,0.827536
1371141266486,0.827720
1371141326486,0.828430
1371141386486,0.829685
1371141446486,0.829610
1371141506486,0.830032
1371141566486,0.835542
1371141626486,0.833573
1371141686486,0.833850
1371141746486,0.834017
1371141806486,0.841018
1371141866486,0.829095
1371141926486,0.834823
1371141986486,0.822168
1371142046486,0.839771
1371142106486,0.836999
1371142166486,0.841392
1371142226486,0.831878
1371142286486,0.834608
1371142346486,0.839861
1371142406486,0.835297
1371142466486,0.826832
1371142526486,0.826880
1371142586486,0.839643
1371142646486,0.828876
1371142706486,0.829058
1371142766486,0.837885
1371142826496,0.826518
1371142886496,0.826366
1371142946496,0.831732
1371143006496,0.832376
1371143066496,0.825542
1371143126496,0.831973
1371143186496,0.830505
1371143246496,0.835238
1371143306496,0.827216
1371143366496,0.842619
1371143426496,0.825994
1371143486496,0.825270
1371143546496,0.836774
1371143606496,0.836291
1371143666496,0.821386
1371143726496,0.829040
1371143786496,0.837169
1371143846496,0.835682
1371143906496,0.828586
1371143966496,0.830141
1371144026496,0.832672
1371144086496,0.823053
1371144146496,0.832766
1371144206496,0.833224
1371144266496,0.828003
1371144326496,0.831867
1371144386496,0.829689
1371144446496,0.823867
1371144506496,0.835018
1371144566496,0.835769
1371144626496,0.831941